Tracking 19564 objects as of 20-Mar-2019
HD Live streaming from Space Station
objects crossing your sky now

COSMOS 2323 (GLONASS)

Track COSMOS 2323 (GLONASS) now!
COSMOS 2323 (GLONASS) is classified as:


NORAD ID: 23736
Int'l Code: 1995-068C
Perigee: 19,118.3 km
Apogee: 19,155.8 km
Inclination: 66.0 °
Period: 675.7 minutes
Semi major axis: 25508 km
RCS: 3.8825 m2 (large)
Launch date: December 14, 1995
Source: Commonwealth of Independent States (former USSR) (CIS)
Launch site: TYURATAM MISSILE AND SPACE COMPLEX (TTMTR)
aabbcc
Your satellite tracking list
Your tracking list is empty




NASA's NSSDC Master Catalog

Two Line Element Set (TLE):
1 23736U 95068C   19076.36854743 +.00000061 +00000-0 +00000-0 0  9999
2 23736 066.0026 289.1585 0007350 183.5998 172.6631 02.13102088180751
Source of the keplerian elements: AFSPC